Location: Passo di Treia
(43.2833°N, 13.3333°E)
Time: 18:04:16
(UTC+00:00)

Cosmos 1190 Rocket - Pass Details

Date: 09 December 2019
Orbit: 756 x 780 km, 74.1° (Epoch: 27 January)

Event Time Altitude Azimuth Distance (km) Brightness Sun altitude
Rises 17:33:39 0° 192° (SSW) 3,207 7.5 -21.5°
Reaches altitude 10° 17:36:01 10° 190° (S) 2,283 6.7 -22.0°
Maximum altitude 17:41:10 70° 107° (ESE) 807 3.8 -22.9°
Enters shadow 17:42:08 56° 50° (NE) 903 4.0 -23.1°
